Retour au catalogue

STARLINK-33883

ActifCommunicationsVLEO
NORAD 63781·PAYLOAD·🇺🇸 United States

Lancé May 2, 2025 depuis Cape Canaveral Space Force Station

Loading…

Prochains Passages (prochaines 24 heures)

TLE

FraisSource: CelesTrak SupGP

Époque: Sep 15, 2026, 02:59 UTC

1 63781C 25091G   26258.12479167 -.00028337  00000+0 -10262-2 0  2587
2 63781  43.0009  62.9010 0001706 268.2650  12.8062 15.27597993    11

Suivez STARLINK-33883 en temps réel avec AllMySat

Download on the App Store